Wind_Speed
4 3 3 3 2 3 3 3 3 4 4 5 6 7 7 8 8 8 8 8 9 9 9 9 9 9 9 10 9 9 9 8 9 10 10 10 10 10 10 10 10 10 9
3 3 2 2 3 3 3 3 4 4 5 5 5 6 7 7 7 7 8 9 9 9 10 9 9 10 10 10 9 10 10 10 11 11 11 11 11 11 11 11 11 11 10
3 2 2 2 3 3 3 3 3 4 4 5 5 6 6 6 7 7 8 9 9 9 9 9 10 10 10 10 10 11 11 11 12 12 12 11 12 12 12 12 12 11 11
2 2 2 2 2 3 3 3 3 3 3 4 5 5 5 5 6 7 8 8 9 10 10 10 10 11 11 11 11 12 12 12 13 12 13 13 13 13 14 14 13 13 13
1 0 1 2 2 3 3 3 4 4 4 4 5 5 5 5 6 7 8 9 10 9 9 10 11 11 11 12 12 12 13 13 13 13 13 13 14 14 15 15 14 15 15
1 1 2 2 3 3 4 4 5 5 5 5 6 6 6 6 7 8 8 9 10 10 10 11 12 12 12 13 13 13 13 13 13 13 14 14 14 14 15 15 16 16 17
1 2 2 3 3 4 4 5 6 6 6 6 6 6 7 8 8 9 9 10 10 10 11 12 12 12 12 13 14 14 14 14 14 14 14 13 14 15 15 15 16 17 18
2 2 3 3 4 5 5 6 6 6 7 7 7 7 8 9 9 9 10 10 10 11 12 12 12 12 13 14 14 15 15 16 16 16 16 16 16 16 17 17 18 18 18
3 3 3 4 4 5 6 6 7 7 7 8 8 8 8 9 9 9 10 11 11 11 12 13 13 14 14 15 15 16 17 18 17 17 18 18 18 19 18 17 18 19 19
3 4 3 4 5 5 6 7 7 8 8 9 9 9 9 9 9 10 10 11 11 11 12 13 14 14 15 16 17 17 17 18 18 18 19 20 20 20 20 19 20 20 20
4 4 5 5 5 6 7 7 8 8 9 9 10 11 11 11 10 10 11 11 11 12 13 13 14 14 15 16 17 17 18 19 19 20 21 21 21 21 21 21 21 21 21
5 5 6 6 6 7 8 9 9 10 10 11 11 11 12 11 11 11 11 12 13 13 14 14 14 15 16 17 18 19 19 20 20 21 21 21 21 21 22 21 21 21 22
7 7 7 7 7 8 9 10 11 11 11 12 12 12 12 12 12 12 12 13 14 14 15 15 16 16 17 18 19 20 20 21 21 21 21 21 21 22 22 22 21 22 22
8 8 9 9 9 10 10 11 11 12 12 12 13 13 13 13 12 13 13 14 15 16 16 17 18 18 19 20 20 21 21 21 21 21 22 22 22 23 23 23 23 23 23
10 10 10 11 11 11 11 11 12 12 12 13 13 14 14 14 14 14 15 16 17 17 17 19 19 19 20 20 21 22 21 21 21 22 23 23 23 24 23 23 23 24 24
12 12 12 12 13 13 13 13 14 14 14 14 15 15 15 16 16 16 17 17 17 17 19 20 21 22 22 22 22 23 23 22 22 23 23 23 24 24 24 24 24 24 24
13 14 14 14 14 14 14 15 16 16 16 16 16 17 17 17 17 18 18 19 19 20 20 21 22 22 22 22 22 22 23 23 23 23 23 23 23 24 24 24 24 24 24
14 15 16 16 16 16 17 17 17 17 17 18 18 18 18 18 18 19 20 21 21 22 22 22 23 23 22 22 23 23 24 24 24 24 24 23 23 24 24 23 24 24 24
16 17 17 18 18 18 18 19 19 18 18 18 19 19 19 19 20 20 21 21 22 22 23 23 24 23 23 23 23 23 23 24 24 24 24 24 24 24 24 23 23 23 23
18 19 19 19 19 19 20 19 19 19 19 20 20 20 20 20 20 21 21 22 23 23 24 24 23 23 23 23 23 23 23 23 24 24 24 24 24 24 24 24 23 23 23
20 20 21 21 21 21 21 21 21 21 21 21 21 21 21 22 22 23 23 23 24 24 24 25 24 24 23 24 24 24 24 24 24 25 25 25 25 25 25 25 24 23 23
22 22 23 23 23 23 22 22 23 23 23 23 23 23 24 24 24 24 24 24 24 24 24 25 25 24 24 24 25 25 24 25 25 25 26 26 26 26 25 25 24 24 24
24 24 24 24 24 24 24 24 24 25 24 24 25 25 25 25 25 25 25 25 25 24 24 24 24 24 25 25 25 25 25 26 26 26 26 26 26 26 26 25 25 25 25
24 25 25 25 25 25 26 25 26 26 26 26 26 25 26 26 26 27 27 27 26 25 25 25 25 25 26 26 26 26 26 26 26 26 27 27 27 27 26 26 26 26 26
25 26 27 27 27 27 27 27 28 28 27 28 27 27 27 28 28 28 28 28 27 27 27 27 27 27 27 27 27 27 27 27 27 27 27 27 27 27 27 26 26 26 26
26 27 28 29 29 28 28 28 28 29 28 28 28 28 29 30 30 30 30 29 28 28 28 28 28 28 28 28 28 29 29 29 28 28 28 28 28 28 27 26 27 26 26
Wind_Direction
173 182 194 202 215 226 244 250 249 264 265 267 267 266 261 255 248 242 243 245 250 251 253 254 251 254 254 255 258 263 266 265 267 260 258 257 255 257 260 259 254 252 254
175 178 182 208 227 239 250 252 265 268 265 269 271 270 264 257 249 250 250 252 261 262 256 257 256 255 258 260 261 262 264 266 268 267 268 265 257 258 262 259 257 256 257
171 181 199 220 235 246 258 255 268 272 272 272 278 279 269 261 256 255 254 256 265 266 263 261 260 261 261 261 261 263 266 266 266 269 271 270 262 260 261 258 260 259 257
159 176 210 232 243 251 265 274 278 279 284 281 279 286 279 267 263 261 256 258 263 267 267 262 264 264 265 265 265 263 267 266 263 265 267 270 266 261 261 257 259 257 257
158 235 270 267 261 260 271 282 286 283 287 291 287 290 283 276 270 264 261 261 263 266 266 265 266 268 269 267 268 269 266 266 264 263 265 267 266 265 261 259 260 258 259
236 288 295 280 266 269 277 286 292 294 292 292 291 292 288 284 279 270 271 269 269 270 269 269 271 269 269 272 273 270 270 267 264 265 264 263 263 265 263 262 260 260 261
259 287 286 283 275 275 281 286 290 290 290 293 292 293 293 292 288 278 276 276 274 277 275 276 277 276 274 276 275 272 270 269 266 265 264 265 263 261 261 266 266 264 262
262 265 271 277 283 284 285 284 288 289 288 288 291 291 296 298 293 285 282 278 275 279 278 279 279 280 280 279 276 275 274 273 270 268 267 266 265 263 264 264 266 266 266
269 283 283 282 288 289 289 287 282 283 291 286 286 291 297 297 294 290 289 285 284 283 284 283 279 278 280 280 279 278 276 274 272 272 270 269 267 264 265 266 270 270 269
292 289 300 302 300 301 302 299 290 287 287 287 288 287 291 293 293 292 289 288 286 284 287 285 282 279 280 281 281 280 280 277 274 273 273 273 270 268 267 267 271 273 273
308 304 302 305 306 303 302 301 297 292 289 286 287 288 291 289 289 290 290 290 288 288 289 289 289 286 285 283 284 283 284 280 278 276 274 274 274 272 271 268 269 271 271
309 313 314 306 304 302 298 297 296 293 291 290 290 292 292 290 286 284 287 289 291 291 291 291 290 289 289 288 288 288 288 284 279 278 277 275 275 275 274 272 270 271 269
303 306 309 309 307 306 303 301 296 294 294 292 291 291 290 290 288 285 286 289 290 291 291 290 290 290 289 288 289 289 289 287 283 280 278 277 276 276 276 275 273 271 270
300 300 301 301 300 300 302 303 304 302 298 295 292 291 290 289 288 287 287 289 289 289 289 290 289 290 289 288 288 288 288 289 287 283 280 279 277 276 275 275 274 272 271
298 296 296 294 294 297 300 302 302 301 300 297 294 292 290 288 287 287 287 289 291 290 292 292 291 292 291 290 290 290 289 288 286 283 281 280 278 276 276 275 273 272 272
297 296 293 291 290 293 296 298 299 297 296 296 294 292 290 287 285 285 285 286 289 289 291 293 293 293 292 290 289 288 286 286 285 283 282 281 280 279 277 277 275 273 273
295 294 293 290 291 292 294 295 295 296 295 295 293 292 291 287 285 284 284 285 288 290 292 293 294 295 293 291 290 288 286 285 286 286 285 282 280 279 278 277 276 274 273
294 294 293 293 292 293 294 295 297 296 295 295 294 292 290 287 286 286 287 288 289 291 292 294 293 292 292 290 289 289 286 286 287 287 286 284 281 280 279 278 278 276 273
292 293 293 293 292 294 296 297 297 297 296 295 294 293 292 291 289 289 290 291 293 293 294 294 293 291 290 289 289 288 287 287 286 286 285 283 282 281 281 281 280 278 277
291 291 292 292 293 294 296 297 297 296 295 295 294 292 292 293 293 292 293 293 295 295 295 295 293 290 289 288 288 287 287 287 286 285 285 283 282 280 279 279 278 277 278
287 289 290 291 292 292 293 295 296 295 295 295 294 292 290 291 293 294 294 294 294 294 295 295 294 291 288 287 287 287 285 285 285 285 284 283 282 280 279 277 277 276 276
285 287 288 290 291 291 293 294 293 294 293 292 293 293 291 292 292 293 292 292 292 293 294 295 293 291 290 290 289 287 286 285 284 284 283 283 282 280 279 277 276 277 276
286 287 289 291 293 292 291 293 293 291 292 292 292 292 290 291 291 291 291 291 291 292 292 293 293 290 289 289 289 288 288 286 286 285 282 281 280 279 278 275 274 274 275
287 288 288 290 292 292 292 292 293 292 292 292 292 292 291 290 290 290 290 290 290 290 291 290 290 289 288 288 288 288 287 287 286 284 283 282 281 278 276 274 273 272 272
288 288 289 289 290 291 292 292 292 293 292 292 291 292 293 291 290 290 289 289 288 289 289 288 287 287 288 287 286 286 286 286 286 286 285 283 281 278 275 273 273 272 271
288 288 289 290 291 291 290 290 291 291 292 290 290 292 293 292 291 290 288 287 287 287 287 287 287 286 286 285 284 283 283 284 285 285 284 283 281 278 275 275 275 273 272
Height
5892 5892 5892 5892 5892 5893 5892 5892 5892 5892 5892 5892 5892 5891 5890 5890 5890 5891 5892 5893 5894 5894 5894 5894 5894 5894 5895 5895 5895 5895 5895 5895 5896 5895 5896 5896 5896 5896 5897 5897 5897 5897 5898
5892 5892 5892 5892 5892 5892 5892 5892 5892 5892 5891 5891 5891 5890 5889 5888 5888 5890 5890 5891 5892 5892 5892 5893 5893 5893 5893 5893 5893 5893 5893 5893 5894 5893 5893 5894 5894 5894 5894 5895 5895 5895 5896
5892 5892 5892 5892 5892 5892 5892 5892 5891 5891 5891 5890 5890 5889 5888 5887 5887 5888 5889 5890 5891 5891 5891 5891 5891 5891 5891 5891 5891 5891 5891 5891 5891 5891 5891 5892 5892 5892 5892 5892 5893 5893 5893
5892 5892 5892 5892 5892 5892 5891 5891 5891 5890 5890 5890 5889 5889 5887 5887 5887 5888 5888 5889 5889 5889 5889 5889 5889 5889 5889 5889 5889 5889 5889 5888 5888 5888 5889 5889 5889 5889 5889 5889 5890 5890 5890
5892 5892 5892 5892 5891 5891 5891 5891 5891 5890 5890 5889 5889 5888 5887 5887 5887 5887 5887 5887 5887 5887 5887 5887 5887 5887 5887 5887 5886 5886 5886 5886 5886 5886 5886 5886 5886 5886 5886 5886 5886 5887 5887
5891 5891 5891 5891 5891 5891 5891 5890 5890 5890 5889 5889 5888 5887 5887 5886 5886 5886 5886 5886 5886 5886 5886 5885 5885 5885 5885 5884 5884 5883 5883 5883 5883 5883 5883 5883 5882 5882 5883 5883 5883 5883 5883
5891 5891 5891 5890 5890 5890 5890 5889 5889 5889 5888 5888 5887 5886 5886 5885 5885 5884 5884 5884 5884 5884 5883 5883 5883 5882 5882 5882 5881 5880 5880 5880 5879 5879 5879 5879 5879 5879 5879 5879 5879 5879 5879
5891 5890 5890 5890 5889 5889 5888 5888 5888 5887 5887 5886 5886 5885 5885 5885 5883 5883 5882 5882 5882 5881 5881 5881 5881 5880 5880 5879 5878 5878 5877 5877 5876 5876 5876 5875 5875 5875 5875 5875 5875 5875 5875
5891 5890 5890 5889 5889 5888 5887 5887 5887 5886 5886 5885 5884 5884 5883 5882 5882 5881 5881 5880 5879 5879 5879 5878 5878 5877 5877 5876 5875 5875 5874 5873 5873 5872 5872 5871 5871 5871 5871 5871 5871 5870 5870
5891 5890 5889 5888 5888 5887 5886 5885 5885 5884 5884 5883 5883 5882 5881 5880 5880 5879 5879 5878 5877 5876 5876 5875 5875 5874 5873 5872 5872 5871 5870 5870 5869 5868 5868 5867 5867 5866 5866 5866 5866 5866 5866
5890 5889 5888 5887 5887 5886 5885 5884 5883 5883 5882 5882 5881 5880 5879 5878 5877 5877 5876 5875 5875 5874 5873 5872 5871 5870 5869 5869 5868 5867 5866 5865 5865 5864 5864 5863 5862 5862 5861 5861 5861 5860 5860
5890 5889 5888 5887 5886 5885 5884 5883 5882 5881 5880 5880 5879 5878 5877 5876 5875 5874 5873 5872 5871 5871 5870 5869 5868 5867 5866 5865 5864 5863 5862 5861 5860 5859 5859 5858 5857 5856 5856 5855 5855 5855 5854
5888 5888 5887 5886 5885 5883 5882 5881 5880 5879 5878 5877 5876 5875 5874 5873 5872 5871 5871 5869 5868 5867 5866 5865 5864 5863 5862 5861 5860 5858 5857 5856 5855 5854 5853 5852 5852 5851 5850 5850 5849 5849 5849
5887 5886 5885 5884 5883 5882 5880 5879 5878 5876 5875 5874 5873 5872 5871 5870 5869 5868 5867 5866 5865 5864 5863 5861 5860 5859 5857 5856 5855 5853 5852 5851 5849 5848 5848 5847 5846 5845 5845 5844 5844 5843 5843
5885 5884 5883 5882 5880 5879 5878 5877 5876 5874 5873 5872 5870 5869 5868 5867 5865 5864 5863 5862 5861 5860 5858 5857 5855 5854 5852 5851 5849 5848 5847 5845 5844 5843 5841 5840 5840 5839 5838 5838 5837 5837 5836
5883 5882 5880 5879 5877 5876 5875 5874 5873 5871 5870 5869 5867 5866 5865 5863 5862 5861 5859 5858 5856 5855 5854 5852 5850 5849 5847 5846 5844 5842 5841 5839 5838 5837 5836 5834 5833 5832 5832 5831 5830 5830 5829
5880 5879 5877 5876 5874 5873 5872 5871 5870 5868 5866 5865 5864 5862 5861 5859 5858 5856 5855 5853 5852 5850 5849 5847 5845 5843 5841 5840 5838 5837 5835 5834 5832 5831 5829 5828 5827 5826 5825 5824 5823 5823 5822
5877 5876 5874 5872 5871 5870 5868 5867 5866 5864 5862 5861 5859 5858 5856 5854 5853 5852 5850 5848 5847 5845 5843 5841 5839 5837 5836 5834 5832 5831 5829 5827 5826 5824 5823 5822 5821 5819 5818 5817 5817 5816 5815
5874 5872 5871 5869 5867 5866 5864 5863 5861 5859 5858 5856 5854 5853 5851 5850 5848 5846 5844 5843 5841 5839 5837 5835 5833 5831 5829 5828 5826 5825 5823 5821 5820 5818 5816 5815 5814 5813 5812 5811 5810 5809 5809
5870 5868 5867 5865 5863 5862 5860 5858 5856 5854 5853 5851 5849 5848 5846 5844 5843 5841 5839 5837 5835 5833 5831 5829 5827 5825 5823 5821 5820 5818 5817 5815 5813 5811 5810 5809 5807 5806 5805 5804 5804 5803 5802
5865 5864 5862 5860 5858 5857 5855 5853 5851 5849 5847 5846 5844 5842 5840 5838 5837 5835 5833 5831 5829 5827 5825 5822 5820 5819 5817 5815 5813 5812 5810 5808 5806 5805 5803 5802 5801 5799 5798 5797 5797 5796 5796
5860 5859 5857 5855 5853 5851 5849 5847 5845 5844 5842 5840 5838 5836 5834 5832 5830 5828 5826 5824 5822 5820 5818 5815 5813 5812 5810 5808 5806 5805 5803 5801 5800 5799 5797 5795 5794 5792 5791 5791 5790 5790 5789
5854 5853 5851 5849 5847 5845 5843 5841 5839 5837 5835 5833 5831 5829 5827 5825 5823 5821 5819 5817 5815 5813 5811 5808 5806 5805 5803 5801 5799 5798 5796 5795 5793 5791 5789 5788 5787 5785 5784 5784 5783 5783 5782
5848 5846 5845 5843 5841 5839 5837 5835 5832 5830 5829 5827 5825 5822 5820 5818 5816 5814 5812 5810 5808 5806 5804 5801 5800 5798 5796 5794 5792 5790 5788 5787 5786 5784 5782 5781 5779 5778 5777 5776 5776 5775 5775
5841 5840 5838 5836 5834 5832 5830 5828 5826 5823 5821 5819 5817 5815 5813 5811 5808 5806 5804 5802 5800 5798 5796 5794 5792 5790 5788 5786 5785 5783 5781 5779 5778 5776 5775 5774 5772 5770 5769 5769 5768 5768 5767
5834 5833 5831 5829 5827 5825 5823 5820 5818 5816 5813 5811 5809 5807 5805 5803 5800 5798 5796 5794 5792 5790 5788 5786 5784 5782 5780 5778 5776 5775 5773 5771 5770 5769 5767 5766 5764 5763 5762 5761 5761 5760 5760